Location: Unspecified
(0.0000°N, 0.0000°E)
Time: 17:57:30
(UTC+00:00)

STARLINK 1010 - Pass Details

Date: 17 January 2020
Orbit: 348 x 352 km, 53.0° (Epoch: 18 January)

Event Time Altitude Azimuth Distance (km) Brightness Sun altitude
Rises 05:22:17 0° 211° (SSW) 2,146 6.6 -11.1°
Reaches altitude 10° 05:24:18 10° 208° (SSW) 1,302 5.5 -10.6°
Maximum altitude 05:27:11 70° 125° (SE) 371 3.0 -10.0°
Drops below altitude 10° 05:30:03 10° 40° (NE) 1,294 5.8 -9.3°
Sets 05:32:03 0° 37° (NE) 2,131 6.9 -8.8°
